SENTINEL-5P

Last updated on Mon Oct 14 2024 00:02:25 GMT+0000 (Coordinated Universal Time)

1 42969U 17064A 24287.45913731 .00000492 00000+0 25414-3 0 9997 2 42969 98.7297 224.9108 0001337 91.9219 268.2110 14.19557068362776
UTC large
Height (km)
Speed (km/s)
/
Latitude / Longitude
Inclination (degrees)
Orbital Period (minutes)
Azimuth
Elevation
Range (km)
Doppler Factor

Next 0 passes for location: London (51.5072 / 0.1276)

Sorry there are no passes over London.